Dewpoint
-14 -13 -14 -14 -13 -14 -13 -9 -5 -5 -4 -1 0 1 5 5 7 7 7 7 7 7 5 6 7 8 10 11 13 14 14 14 13 14 13 13 12 13 12 12 10 9 7 3
-13 -11 -15 -17 -16 -15 -14 -11 -7 -7 -5 -2 -3 1 4 4 5 6 6 6 6 5 3 4 6 8 9 9 12 12 13 13 13 12 11 11 11 8 7 6 3 -1 -5 -10
-12 -14 -15 -17 -16 -14 -13 -11 -9 -7 -3 -4 -3 -0 3 3 3 3 4 4 4 3 2 2 3 5 8 9 10 12 12 12 12 11 10 9 9 3 1 -2 -8 -16 -21 -26
-14 -16 -16 -14 -13 -14 -11 -14 -12 -8 -3 -1 -4 1 2 3 3 2 2 2 2 1 -0 -1 0 1 3 6 7 7 7 7 8 5 3 2 0 -1 -1 -3 -16 -27 -31 -30
-12 -13 -13 -14 -14 -16 -13 -15 -14 -12 -7 -2 -2 -0 0 1 2 2 1 1 1 -0 -2 -2 -2 -2 -1 1 2 3 3 2 2 2 1 -0 -2 -3 -3 -13 -25 -26 -24 -24
-12 -15 -14 -14 -16 -16 -16 -14 -13 -13 -10 -1 1 1 0 0 1 0 -0 0 0 -1 -2 -3 -3 -3 -3 -3 -1 -3 -2 -4 -6 -7 -8 -4 -5 -4 -3 -3 -3 -2 -4 -15
-11 -12 -15 -13 -12 -13 -14 -10 -8 -8 -6 -5 -4 0 0 -3 -2 -1 -1 -0 -0 -0 -2 -3 -4 -4 -4 -3 -2 -3 -4 -6 -10 -13 -14 -11 -6 -4 -3 -3 -3 -3 -2 -7
-11 -9 -13 -14 -12 -13 -13 -11 -5 -6 -7 -8 -10 -2 -4 -5 -5 -3 -2 -0 -0 0 -1 -3 -3 -4 -3 -2 -2 -4 -4 -8 -10 -14 -12 -11 -10 -4 -3 -3 -3 -4 -6 -19
-8 -10 -16 -15 -14 -13 -12 -10 -12 -6 -9 -7 -9 -9 -9 -7 -6 -3 -2 -1 0 0 -1 -2 -3 -4 -3 -2 -3 -5 -4 -6 -8 -10 -10 -10 -8 -6 -11 -22 -16 -16 -20 -20
-9 -6 -11 -12 -13 -14 -12 -15 -8 -6 -3 -4 -6 -7 -7 -6 -7 -4 -2 -1 0 1 -0 -2 -3 -3 -3 -3 -3 -2 -3 -4 -4 -6 -12 -14 -15 -20 -18 -14 -12 -19 -21 -20
-4 -5 -7 -10 -9 -10 -12 -11 -10 -10 -6 -1 -3 -6 -10 -8 -5 -4 -3 -2 0 1 -0 -1 -3 -3 -3 -3 -2 -2 -3 -3 -3 -5 -5 -10 -12 -16 -13 -14 -14 -12 -19 -17
-1 -0 -3 -7 -10 -12 -11 -11 -11 -4 -6 -6 -3 -5 -12 -8 -8 -3 -5 -3 -1 1 0 -1 -2 -3 -3 -3 -2 -2 -3 -3 -3 -4 -4 -6 -11 -7 -7 -11 -13 -19 -18 -18
-2 0 -1 -4 -7 -9 -8 -10 -11 -10 -7 -6 -1 -3 -11 -10 -9 -6 -4 -4 -1 1 1 -1 -2 -3 -3 -3 -2 -2 -3 -3 -3 -4 -3 -6 -6 -4 -8 -15 -20 -21 -20 -20
-5 0 1 -1 -6 -8 -6 -8 -8 -8 -1 -3 -5 -7 -9 -10 -8 -8 -7 -4 -0 1 1 -1 -2 -2 -3 -3 -3 -3 -3 -3 -4 -4 -4 -4 -4 -4 -5 -11 -14 -14 -12 -13
-5 -1 -1 -1 -3 -5 -5 -5 -8 -8 -7 -2 -4 -7 -9 -10 -8 -8 -8 -4 -1 1 1 -0 -1 -2 -2 -3 -3 -3 -3 -4 -4 -5 -5 -4 -3 -3 -6 -14 -13 -13 -9 -9
-7 -1 -2 -1 -2 -2 -1 -3 -6 -8 -9 -8 -7 -6 -9 -11 -12 -10 -7 -2 -1 0 1 -0 -1 -1 -2 -3 -3 -3 -3 -4 -5 -5 -5 -4 -4 -4 -10 -12 -14 -16 -15 -12
-8 -6 -5 0 -2 -2 2 -2 -5 -7 -9 -9 -6 -8 -9 -8 -8 -4 -3 -1 -1 0 1 -0 -1 -1 -2 -3 -3 -3 -3 -4 -4 -5 -5 -4 -5 -4 -8 -10 -12 -10 -7 -10
-10 -7 -5 -2 -3 4 -0 -5 -7 -7 -8 -9 -9 -9 -10 -10 -9 -5 -2 -0 0 1 1 -0 -1 -1 -2 -2 -3 -3 -3 -4 -4 -5 -5 -5 -5 -4 -6 -5 -5 -5 -7 -7
-12 -10 -3 -0 -3 -3 -5 -6 -7 -8 -8 -9 -8 -10 -10 -10 -10 -6 -4 -1 0 1 1 0 -0 -1 -1 -2 -3 -2 -3 -3 -4 -5 -5 -6 -5 -5 -5 -5 -4 -4 -4 -4
-13 -12 -4 -4 -2 -0 -6 -8 -9 -6 -2 -3 -2 -4 -10 -10 -4 -7 -7 -3 -0 1 1 1 -0 -1 -1 -2 -3 -2 -3 -3 -4 -5 -6 -6 -6 -5 -5 -5 -4 -5 -5 -5
-8 -8 -4 -3 -1 -6 -11 -11 -10 1 2 -3 -2 -3 -2 -4 -9 -9 -9 -4 -0 1 2 1 0 -1 -1 -2 -2 -2 -3 -3 -4 -4 -6 -6 -6 -6 -5 -5 -5 -5 -6 -7
-12 -8 0 -5 -3 -3 -12 -9 -6 -0 -4 -6 -3 -4 -2 -2 -3 -4 -7 -4 0 1 1 1 0 -0 -1 -2 -2 -2 -3 -3 -4 -5 -6 -6 -6 -6 -5 -6 -6 -6 -7 -6
-9 -11 -5 -1 -1 -9 -6 -2 -4 -5 -7 -8 -9 -6 -3 -2 -2 -2 -3 -5 -1 0 0 1 1 -0 -1 -1 -2 -2 -3 -3 -4 -5 -6 -6 -6 -7 -6 -6 -6 -7 -6 -5
-15 -16 -9 -10 -11 -10 -9 -4 -8 -8 -7 -9 -11 -11 -7 -3 -4 -4 -3 -4 -1 -1 -0 0 0 0 -0 -1 -2 -3 -3 -3 -4 -5 -6 -6 -6 -7 -6 -6 -7 -6 -6 -6
-13 -15 -13 -13 -14 -14 -14 -13 -10 -1 -9 -13 -12 -13 -11 -6 -7 -6 -5 -3 -2 -2 -2 -0 0 -0 -0 -1 -2 -2 -3 -4 -4 -6 -7 -6 -7 -7 -7 -7 -7 -7 -6 -6
-14 -14 -12 -10 -15 -15 -15 -16 -15 -15 -15 -15 -14 -13 -13 -9 -9 -7 -6 -4 -3 -2 -2 -0 -0 -0 -1 -1 -2 -2 -3 -4 -5 -7 -7 -7 -8 -7 -8 -8 -8 -7 -10 -13
Wind_Speed
18 14 19 22 23 24 25 25 26 27 21 22 22 22 19 22 22 22 23 23 21 19 15 13 13 12 13 11 15 15 15 16 15 15 14 12 8 7 5 6 5 5 4 3
16 19 19 20 22 22 26 27 24 22 16 18 21 22 16 18 21 24 23 22 22 20 17 14 13 12 12 9 14 14 14 14 15 14 12 10 9 8 6 4 4 3 2 2
19 17 14 22 21 19 22 26 21 25 14 12 14 19 17 19 21 21 22 22 22 21 20 17 15 14 13 12 11 14 14 14 13 13 10 9 6 6 5 3 2 1 1 2
19 17 17 13 20 19 23 22 24 26 15 15 20 16 21 22 20 20 26 27 26 23 21 19 18 16 15 14 13 13 12 12 11 9 8 9 7 8 7 5 4 3 3 3
17 13 16 22 22 19 24 22 22 26 23 15 19 18 16 23 21 27 29 30 28 25 23 22 21 19 16 15 15 15 14 13 13 13 12 10 10 8 7 6 5 5 5 5
19 15 14 17 16 20 19 19 21 22 21 18 20 20 21 25 28 26 29 33 31 29 27 24 22 21 19 17 16 16 15 14 14 13 13 12 11 10 9 8 7 6 6 6
20 22 21 14 16 16 18 16 14 18 17 17 26 26 20 18 29 29 28 35 36 33 31 29 27 25 22 20 18 17 16 15 14 13 12 13 12 12 11 9 8 7 6 5
16 19 23 20 24 21 24 20 15 23 18 22 28 28 28 26 28 38 37 38 37 35 32 30 29 26 24 22 21 19 18 17 15 15 15 14 12 10 10 9 9 8 7 6
16 21 19 13 20 20 24 22 26 26 24 21 23 21 33 19 25 19 26 37 40 39 37 34 32 29 26 25 23 22 20 19 17 17 16 15 13 12 11 11 10 9 8 7
21 22 19 8 15 20 26 21 19 17 26 28 26 28 19 25 22 24 22 32 38 38 37 36 34 32 29 26 24 23 21 19 18 17 16 15 14 13 12 11 10 10 10 9
16 17 22 17 21 19 19 21 21 19 20 18 21 22 23 21 25 25 24 33 38 42 42 40 37 34 30 27 25 24 23 22 20 18 16 16 14 14 13 12 12 11 10 9
12 8 17 27 19 17 23 24 25 16 22 18 21 20 18 13 12 25 27 34 40 40 41 39 37 34 33 31 28 27 25 23 21 19 18 17 16 15 14 13 12 12 10 10
12 7 14 19 18 23 21 24 22 23 21 23 19 21 22 17 10 23 26 28 35 37 39 39 38 37 35 32 30 29 26 24 22 20 19 18 17 15 14 14 13 12 11 10
15 11 16 16 21 17 18 23 23 24 17 20 23 26 24 26 14 9 17 23 34 40 43 42 41 39 37 35 32 30 28 26 24 22 20 19 18 16 15 14 13 12 11 10
10 11 17 20 25 25 24 24 25 26 26 24 25 31 24 23 15 17 18 21 32 42 45 44 43 41 39 37 34 31 29 28 26 24 21 20 19 17 17 16 14 13 12 10
8 10 16 20 20 22 25 25 25 22 29 28 28 28 23 30 31 19 23 22 32 39 44 45 44 43 41 39 36 33 31 30 27 24 22 21 20 19 18 17 15 14 13 11
19 13 13 20 19 23 24 27 29 24 22 22 25 24 22 22 19 10 15 24 34 38 41 46 48 46 44 42 40 37 33 30 28 26 24 23 21 20 19 18 16 15 13 11
23 19 13 15 17 18 15 23 26 28 27 26 26 24 21 22 29 24 17 23 30 37 40 45 46 46 45 43 39 38 34 32 30 27 26 24 23 21 20 18 16 16 13 11
23 20 14 15 15 22 27 19 19 24 29 25 26 25 22 28 21 19 25 26 32 38 45 51 47 44 43 42 42 39 36 33 31 29 28 26 24 23 21 19 18 15 14 12
23 24 16 13 18 24 25 22 31 24 18 16 18 22 24 28 12 13 31 24 26 29 35 39 44 45 44 44 45 44 42 38 33 31 29 27 25 24 22 20 18 16 14 12
13 17 22 20 19 18 20 18 33 18 7 23 25 26 27 13 17 28 17 23 28 31 39 42 46 49 48 46 46 46 44 40 34 31 29 27 26 24 22 21 18 17 15 13
20 8 8 20 20 22 9 22 20 4 11 20 23 23 25 22 19 17 13 7 20 29 35 45 50 53 51 50 49 46 46 41 36 34 31 29 27 25 23 22 19 17 16 14
14 11 12 3 5 14 25 11 12 13 10 18 24 26 26 23 20 16 13 13 14 24 32 44 49 50 52 55 54 49 47 43 40 36 32 30 28 25 24 22 20 18 16 14
24 30 17 18 17 16 19 15 22 25 9 22 26 28 27 23 22 20 16 11 12 22 30 37 45 48 48 51 50 47 49 46 41 38 35 33 31 27 24 21 19 17 16 15
20 21 23 25 31 34 38 31 20 18 24 27 29 29 28 24 23 21 20 16 12 17 26 36 45 47 48 53 50 47 49 48 44 40 38 35 31 30 26 21 19 17 20 17
25 22 17 22 31 26 35 37 33 36 35 34 33 34 30 24 25 25 23 18 15 15 22 34 41 46 47 49 48 49 52 51 47 44 39 37 36 31 29 30 29 27 23 22
Wind_Direction
207 226 229 231 227 247 252 239 222 248 174 198 219 217 170 183 189 186 185 178 178 172 166 159 158 156 162 189 194 203 205 202 195 207 186 212 206 207 200 218 220 222 229 262
237 231 251 248 250 239 245 254 254 233 163 183 217 213 167 190 197 191 188 185 178 169 168 165 157 159 163 171 187 199 198 196 190 184 178 183 202 194 195 182 186 198 225 279
235 234 240 241 246 245 248 240 245 251 149 202 227 219 176 194 204 198 200 195 186 180 174 168 164 162 161 166 176 191 192 190 195 200 198 193 196 147 122 117 161 173 298 283
250 242 247 242 250 240 243 239 247 256 180 210 218 225 191 193 204 202 200 199 190 187 180 175 169 166 162 160 160 163 167 178 176 148 155 145 146 147 148 138 155 163 162 118
230 228 245 231 238 242 248 258 249 242 251 226 205 226 224 189 204 209 201 199 193 191 186 182 176 171 167 163 158 160 158 160 166 167 163 152 154 152 148 152 144 119 97 91
251 259 242 253 252 241 263 251 254 258 236 234 223 216 222 211 213 211 203 198 196 193 190 187 180 175 173 167 164 165 163 167 169 169 166 165 158 150 142 135 126 121 97 69
240 239 247 225 252 242 221 236 227 232 229 231 209 234 225 230 209 209 200 198 197 195 191 187 183 180 175 172 168 165 164 166 168 169 167 165 156 151 141 133 134 116 100 85
240 233 224 226 226 244 214 224 231 231 226 231 228 227 236 220 254 206 200 196 197 194 193 192 188 183 180 174 171 167 168 169 167 168 163 157 145 144 138 144 135 126 120 110
262 257 266 228 224 223 241 219 235 246 248 243 236 235 239 238 220 186 198 190 196 193 193 193 189 185 184 178 175 174 170 168 168 168 163 161 158 154 156 150 139 132 121 110
252 263 269 250 235 241 233 244 227 236 244 244 241 246 232 224 222 198 193 195 194 193 194 192 192 187 184 179 174 171 169 166 166 166 165 161 164 160 155 148 146 143 135 127
294 270 252 255 233 240 225 236 247 242 237 251 251 241 238 244 196 212 199 199 194 195 193 192 191 188 183 177 176 173 169 169 168 165 159 162 159 158 153 150 147 145 135 127
334 293 257 246 249 250 251 248 227 240 235 241 248 254 254 310 243 195 214 196 198 195 195 192 191 186 182 178 177 176 173 171 170 167 164 162 160 159 156 153 154 146 141 134
343 273 253 246 241 243 247 248 251 232 245 250 240 241 254 264 296 192 197 206 189 191 194 191 189 188 184 181 179 176 175 173 170 167 166 163 160 160 159 160 156 150 146 134
306 259 264 260 251 246 230 234 253 254 227 241 251 255 234 244 215 254 199 199 183 189 193 192 190 189 185 182 182 177 173 174 172 169 167 165 162 163 163 160 156 153 145 138
331 276 279 281 284 281 285 282 228 239 247 238 236 246 250 254 213 226 230 207 192 193 192 192 188 190 187 181 180 178 173 175 173 170 169 167 165 163 165 161 161 159 148 146
313 280 297 290 281 279 276 271 271 244 232 246 249 248 244 255 264 230 206 202 197 197 192 192 191 189 187 181 179 177 176 174 173 171 170 168 167 167 167 167 166 164 159 155
283 267 265 270 281 272 256 248 255 261 263 245 247 253 254 248 246 278 199 202 199 196 194 194 192 188 186 182 177 177 176 173 173 172 172 171 170 169 172 169 168 166 163 158
251 257 262 260 274 274 248 246 246 251 261 262 265 265 262 255 249 224 219 212 203 198 196 196 191 189 188 182 178 176 175 173 173 172 174 173 172 172 171 170 171 170 168 160
230 237 250 249 240 253 276 272 256 248 249 249 260 265 258 255 262 210 226 209 209 204 196 194 189 186 187 184 179 176 174 174 174 175 175 175 174 173 172 172 173 170 167 165
223 226 231 239 240 243 250 259 264 277 277 355 339 314 243 253 230 252 223 209 207 207 198 190 187 186 186 186 181 176 175 174 176 176 176 175 174 175 174 174 172 171 169 166
246 216 215 227 242 257 267 251 251 278 264 356 354 358 348 276 227 241 254 202 194 196 192 189 185 187 187 186 183 178 175 175 174 174 173 174 175 175 175 173 173 171 167 169
278 286 231 234 235 246 287 254 269 25 343 357 356 357 350 357 354 348 316 209 191 188 189 189 186 186 186 187 187 182 176 174 171 172 172 174 173 174 175 173 172 170 171 169
272 264 271 209 283 253 354 339 346 341 357 356 351 348 349 2 2 348 318 290 225 206 195 191 190 187 185 185 184 180 177 172 174 171 172 172 173 173 174 172 172 170 171 172
262 269 269 280 267 260 301 283 303 308 326 342 340 338 338 339 345 340 326 292 254 218 203 194 191 189 186 185 184 184 175 174 173 171 170 172 172 172 172 172 173 172 174 180
269 286 278 281 274 279 280 284 293 308 312 319 320 322 320 319 324 325 320 313 270 230 213 197 192 191 188 184 183 180 175 175 171 170 170 171 174 171 168 169 173 172 182 183
252 257 258 262 271 283 285 288 290 293 298 299 303 304 303 302 311 312 310 307 294 238 215 202 197 190 189 185 183 179 177 181 174 170 170 173 179 169 169 182 173 186 193 188
Height
1474 1472 1464 1461 1458 1453 1448 1444 1447 1439 1440 1460 1464 1469 1481 1487 1489 1494 1497 1500 1505 1510 1515 1518 1520 1524 1526 1523 1526 1529 1532 1534 1536 1539 1539 1543 1543 1545 1546 1546 1547 1547 1548 1548
1468 1465 1460 1457 1454 1451 1450 1447 1439 1434 1434 1452 1459 1461 1477 1487 1487 1490 1494 1499 1502 1508 1513 1516 1518 1522 1525 1523 1525 1528 1530 1533 1535 1537 1539 1541 1543 1543 1545 1545 1546 1547 1547 1547
1461 1454 1454 1458 1453 1455 1450 1450 1448 1442 1448 1455 1456 1464 1473 1484 1488 1490 1493 1497 1501 1506 1510 1514 1517 1520 1523 1525 1524 1526 1529 1531 1534 1536 1538 1540 1542 1544 1545 1547 1546 1546 1546 1547
1454 1454 1455 1459 1458 1456 1456 1447 1449 1442 1450 1462 1456 1468 1463 1474 1483 1485 1488 1492 1496 1502 1506 1510 1514 1518 1521 1523 1526 1528 1529 1530 1532 1535 1539 1542 1545 1546 1546 1546 1546 1546 1547 1547
1452 1454 1454 1453 1453 1454 1452 1448 1445 1444 1441 1452 1452 1462 1448 1461 1474 1471 1479 1486 1492 1499 1503 1507 1511 1515 1518 1520 1523 1526 1528 1530 1531 1534 1537 1540 1542 1543 1545 1544 1546 1547 1547 1547
1452 1447 1451 1449 1449 1451 1449 1450 1449 1442 1442 1452 1453 1456 1443 1442 1450 1463 1473 1479 1487 1494 1500 1505 1509 1512 1516 1518 1520 1522 1525 1527 1529 1532 1535 1538 1540 1542 1544 1545 1547 1548 1547 1546
1449 1446 1446 1453 1453 1448 1448 1459 1461 1459 1445 1446 1433 1442 1430 1417 1429 1444 1457 1470 1479 1488 1494 1500 1504 1508 1512 1514 1517 1520 1523 1525 1527 1530 1533 1536 1539 1541 1543 1546 1547 1547 1547 1546
1439 1441 1435 1439 1443 1442 1440 1447 1450 1458 1446 1438 1423 1426 1410 1416 1422 1428 1442 1460 1472 1481 1490 1497 1501 1506 1509 1511 1514 1518 1521 1523 1526 1529 1532 1535 1537 1541 1542 1544 1544 1545 1545 1545
1442 1435 1422 1425 1432 1441 1436 1436 1432 1437 1426 1425 1414 1406 1407 1408 1415 1425 1435 1449 1461 1472 1481 1489 1495 1500 1505 1507 1510 1514 1518 1521 1525 1528 1530 1533 1536 1538 1539 1541 1542 1542 1544 1545
1434 1441 1428 1427 1432 1429 1431 1423 1436 1431 1443 1437 1415 1409 1405 1404 1408 1414 1429 1439 1452 1466 1475 1482 1490 1495 1499 1503 1507 1512 1517 1520 1523 1526 1528 1530 1534 1536 1538 1540 1542 1542 1544 1545
1444 1439 1433 1428 1426 1427 1427 1428 1423 1419 1420 1425 1419 1403 1388 1389 1397 1408 1418 1431 1444 1457 1465 1474 1483 1490 1496 1500 1505 1509 1513 1518 1521 1524 1527 1529 1533 1535 1538 1540 1542 1543 1543 1545
1458 1445 1433 1425 1419 1418 1418 1413 1417 1420 1423 1411 1409 1401 1388 1389 1387 1396 1411 1419 1432 1450 1462 1471 1480 1487 1491 1496 1501 1506 1511 1514 1519 1522 1525 1528 1531 1535 1537 1539 1541 1542 1544 1545
1474 1446 1437 1427 1420 1415 1414 1410 1408 1408 1412 1412 1411 1404 1393 1391 1394 1395 1404 1413 1425 1445 1458 1466 1474 1482 1486 1492 1497 1502 1507 1512 1516 1520 1524 1526 1529 1534 1536 1538 1540 1542 1544 1544
1479 1458 1442 1425 1415 1407 1411 1409 1408 1404 1411 1412 1404 1396 1390 1392 1393 1397 1399 1408 1420 1437 1449 1459 1467 1476 1481 1486 1494 1497 1503 1510 1514 1518 1522 1525 1528 1532 1535 1537 1540 1542 1544 1544
1482 1464 1448 1433 1421 1411 1407 1405 1397 1404 1399 1402 1398 1395 1391 1388 1390 1396 1400 1408 1417 1428 1440 1450 1459 1470 1476 1481 1488 1495 1499 1506 1511 1516 1520 1523 1526 1530 1533 1535 1539 1541 1543 1545
1483 1474 1458 1448 1437 1426 1418 1409 1398 1390 1391 1390 1389 1386 1389 1390 1387 1389 1395 1404 1412 1422 1431 1443 1453 1462 1472 1475 1482 1490 1496 1501 1507 1512 1517 1520 1524 1528 1530 1534 1537 1540 1542 1544
1485 1475 1461 1453 1440 1428 1421 1408 1398 1391 1385 1388 1389 1384 1386 1386 1386 1391 1395 1401 1407 1417 1428 1437 1445 1454 1464 1469 1474 1483 1492 1497 1503 1508 1513 1517 1521 1525 1528 1532 1536 1539 1541 1543
1476 1469 1461 1452 1448 1443 1404 1396 1395 1395 1389 1386 1382 1382 1381 1382 1382 1388 1394 1400 1406 1413 1423 1433 1441 1450 1458 1463 1470 1478 1486 1492 1498 1504 1509 1514 1519 1523 1527 1531 1535 1537 1539 1541
1462 1463 1459 1450 1434 1422 1407 1395 1392 1388 1385 1384 1383 1379 1378 1379 1379 1377 1387 1394 1402 1408 1412 1419 1433 1445 1457 1462 1466 1473 1479 1486 1493 1499 1504 1510 1515 1520 1525 1530 1533 1536 1538 1540
1441 1449 1449 1440 1430 1416 1400 1402 1397 1391 1384 1387 1385 1378 1373 1375 1378 1376 1381 1386 1397 1407 1415 1422 1431 1440 1450 1457 1461 1464 1470 1477 1487 1493 1499 1505 1511 1517 1523 1527 1530 1534 1536 1539
1423 1423 1430 1425 1426 1409 1399 1395 1393 1397 1400 1402 1394 1389 1383 1368 1371 1377 1377 1379 1389 1399 1407 1417 1425 1430 1440 1452 1458 1459 1464 1470 1478 1488 1495 1502 1508 1515 1520 1524 1527 1531 1534 1537
1433 1437 1432 1421 1421 1418 1400 1395 1398 1415 1411 1408 1404 1401 1393 1385 1377 1376 1379 1382 1388 1392 1401 1408 1415 1420 1432 1443 1452 1456 1458 1465 1473 1483 1491 1499 1506 1512 1517 1520 1524 1529 1531 1534
1438 1433 1429 1442 1416 1399 1415 1417 1417 1416 1417 1414 1409 1403 1397 1391 1390 1388 1387 1385 1387 1393 1397 1401 1409 1418 1422 1429 1439 1448 1452 1459 1468 1478 1488 1495 1503 1509 1513 1517 1521 1526 1529 1533
1439 1437 1432 1432 1410 1411 1416 1420 1420 1419 1416 1412 1411 1407 1402 1397 1395 1393 1390 1387 1388 1391 1394 1399 1406 1413 1420 1426 1436 1445 1447 1455 1464 1474 1482 1491 1498 1504 1510 1515 1519 1523 1527 1531
1441 1440 1430 1422 1410 1416 1414 1418 1416 1416 1415 1415 1413 1410 1406 1402 1398 1396 1393 1388 1387 1388 1391 1396 1400 1408 1415 1422 1431 1438 1443 1449 1459 1469 1476 1485 1493 1498 1505 1511 1516 1519 1523 1526
1436 1432 1429 1402 1410 1418 1409 1413 1416 1415 1415 1415 1414 1411 1408 1403 1399 1396 1393 1389 1385 1385 1388 1393 1398 1404 1413 1421 1430 1433 1438 1442 1452 1461 1471 1480 1486 1493 1500 1503 1507 1513 1517 1520